Location: ??????????
(41.2581°N, 22.8006°E)
Time: 17:38:58
(UTC+00:00)

S3M - Pass Details

Date: 13 December 2025
Orbit: 947 x 1004 km, 83.0° (Epoch: 22 January)

Event Time Altitude Azimuth Distance (km) Brightness Sun altitude
Rises 17:05:26 0° 171° (S) 3,712 7.1 -22.7°
Reaches altitude 10° 17:08:01 10° 166° (SSE) 2,763 6.3 -23.2°
Maximum altitude 17:14:09 54° 92° (E) 1,201 4.0 -24.3°
Enters shadow 17:14:30 53° 80° (E) 1,209 4.0 -24.4°
